Regional Weather Roundup
Issued by NWS

Home | Current Version | Previous Version | Graphics & Text | Print | Product List | Glossary On
Versions: 1 2 3 4 5 6 7 8 9 10 11 12 13 14 15 16 17 18 19 20 21 22 23 24 25 26 27 28 29 30 31 32 33 34 35 36 37 38 39 40 41 42 43 44 45 46 47 48 49 50
000
ASUS44 KMEG 210810
RWRTN
TENNESSEE HOURLY STATE WEATHER ROUNDUP
NATIONAL WEATHER SERVICE MEMPHIS TN
200 AM CST SUN DEC 21 2014

TNZ002-004-019-021-049-052-054-088>092-210900-
WEST TENNESSEE

CITY           SKY/WX    TMP DP  RH WIND       PRES   REMARKS
MEMPHIS INTL   CLEAR     37  30  75 NE6       30.23F WCI  32
NWS MEMPHIS      N/A     32 N/A N/A MISG        N/A
JACKSON        CLEAR     29  25  85 CALM      30.25S
DYERSBURG      CLEAR     30  19  64 E3        30.28S
UNION CITY     CLEAR     27  27 100 CALM      30.26R
PARIS          CLEAR     25  23  93 CALM      30.26R
HUNTINGDON     CLEAR     26  23  88 CALM      30.25S
LEXINGTON      CLEAR     27  25  93 CALM      30.23S
SAVANNAH       CLEAR     27  25  93 CALM      30.25R
$$

TNZ008-025-027-028-033-062-065-066-210900-
NORTH MIDDLE TENNESSEE

CITY           SKY/WX    TMP DP  RH WIND       PRES   REMARKS
NASHVILLE      CLEAR     29  26  89 CALM      30.26S
CLARKSVILLE    CLEAR     26  23  88 CALM      30.27R
SMYRNA         CLEAR     25  23  91 CALM      30.27S
COOKEVILLE     CLEAR     21  19  93 CALM      30.23R
CROSSVILLE     CLEAR     30  23  75 CALM      30.21S
$$

TNZ061-075-076-078-094-096-097-210900-
SOUTH MIDDLE TENNESSEE

CITY           SKY/WX    TMP DP  RH WIND       PRES   REMARKS
FAYETTEVILLE   CLEAR     28  25  86 N13G25    30.20S WCI  18
TULLAHOMA      CLEAR     30  27  86 CALM      30.21S
WINCHESTER     CLEAR     25  23  93 CALM      30.21F
MCMINNVILLE    CLEAR     28  28 100 CALM      30.21F
COLUMBIA       CLEAR    N/A N/A N/A CALM      30.23R
SHELBYVILLE    CLEAR     27  27 100 CALM      30.24R
$$

TNZ017-018-042-046-047-210900-
NORTHEAST TENNESSEE

CITY           SKY/WX    TMP DP  RH WIND       PRES   REMARKS
TRI CITIES     CLOUDY    38  36  92 CALM      30.22F FOG
ELIZABETHTON   CLOUDY    36  36 100 CALM      30.21F FOG
$$

TNZ012-013-036-069-073-074-210900-
CENTRAL EAST TENNESSEE

CITY           SKY/WX    TMP DP  RH WIND       PRES   REMARKS
KNOXVILLE      MOCLDY    39  32  76 NE6       30.23S WCI  35
OAK RIDGE      CLEAR     29  27  92 CALM      30.25S
GATLINBURG     CLOUDY    37  36  93 CALM      30.23S
MORRISTOWN     CLOUDY    37  34  87 CALM      30.22F
$$

TNZ083-085-099-210900-
SOUTHEAST TENNESSEE

CITY           SKY/WX    TMP DP  RH WIND       PRES   REMARKS
CHATTANOOGA    CLOUDY    33  31  92 CALM      30.23S
$$

SKY/WX REPORTED AS FAIR MEANS FEW OR NO CLOUDS BELOW
12 THOUSAND FEET.



USA.gov is the U.S. government's official web portal to all federal, state and local government web resources and services.